Index of /shared/routes/0d17d3138166a962e7888bf6207bc760

[ICO]NameLast modifiedSizeDescription

[PARENTDIR]Parent Directory  -  
[   ]140309-1157-Untitled.kmz2014-03-10 14:40 36K 
[   ]140309-1157-Untitled.kmz.php2014-03-10 14:40 689  
[IMG]140309-1157-Untitled.kmz.png2014-03-10 14:40 0  
[   ]140315-1302-Untitled.kmz2014-03-15 14:24 46K 
[   ]140315-1302-Untitled.kmz.php2014-03-15 14:24 693  
[IMG]140315-1302-Untitled.kmz.png2014-03-15 14:24 0  
[   ]140319-1627-Untitled.kmz2014-03-19 17:35 38K 
[   ]140319-1627-Untitled.kmz.php2014-03-19 17:35 704  
[IMG]140319-1627-Untitled.kmz.png2014-03-19 17:35 0  
[   ]140508-1506-Untitled.kmz2014-05-08 14:14 21K 
[   ]140508-1506-Untitled.kmz.php2014-05-08 14:14 689  
[IMG]140508-1506-Untitled.kmz.png2014-05-08 14:14 0  
[   ]140511-1323-Untitled.kmz2014-05-11 18:37 56K 
[   ]140511-1323-Untitled.kmz.php2014-05-11 18:37 694  
[IMG]140511-1323-Untitled.kmz.png2014-05-11 18:37 0  
[   ]140518-1408-Untitled.kmz2014-05-18 15:42 34K 
[   ]140518-1408-Untitled.kmz.php2014-05-18 15:42 694  
[IMG]140518-1408-Untitled.kmz.png2014-05-18 15:42 0  
[   ]140531-1512-Untitled.kmz2014-05-31 15:08 37K 
[   ]140531-1512-Untitled.kmz.php2014-05-31 15:08 695  
[IMG]140531-1512-Untitled.kmz.png2014-05-31 15:08 0  
[   ]140607-1156-Untitled.kmz2014-06-09 12:46 95K 
[   ]140607-1156-Untitled.kmz.php2014-06-09 12:46 685  
[IMG]140607-1156-Untitled.kmz.png2014-06-09 12:46 0  
[   ]140611-1806-Untitled.kmz2014-06-14 15:30 31K 
[   ]140611-1806-Untitled.kmz.php2014-06-14 15:30 691  
[IMG]140611-1806-Untitled.kmz.png2014-06-14 15:30 0  
[   ]140613-1849-Untitled.kmz2014-06-14 15:31 31K 
[   ]140613-1849-Untitled.kmz.php2014-06-14 15:31 701  
[IMG]140613-1849-Untitled.kmz.png2014-06-14 15:31 0  
[   ]140614-1447-Untitled.kmz2014-06-14 15:32 56K 
[   ]140614-1447-Untitled.kmz.php2014-06-14 15:32 708  
[IMG]140614-1447-Untitled.kmz.png2014-06-14 15:32 0  
[   ]140615-0937-Untitled.kmz2014-06-15 12:32 69K 
[   ]140615-0937-Untitled.kmz.php2014-06-15 12:32 700  
[IMG]140615-0937-Untitled.kmz.png2014-06-15 12:32 0  
[   ]150505-1016-Untitled.kmz2015-05-06 07:34 40K 
[   ]150505-1016-Untitled.kmz.php2015-05-06 07:34 691  
[IMG]150505-1016-Untitled.kmz.png2015-05-06 07:34 0  
[   ]150818-1325-Untitled.kmz2015-08-18 20:00 57K 
[   ]150818-1325-Untitled.kmz.php2015-08-18 20:00 699  
[IMG]150818-1325-Untitled.kmz.png2015-08-18 20:00 0  
[   ]160709-1530-Untitled.kmz2016-07-09 15:51 25K 
[   ]160709-1530-Untitled.kmz.php2016-07-09 15:51 691  
[IMG]160709-1530-Untitled.kmz.png2016-07-09 15:51 0  
[   ]160716-1510-Untitled.kmz2016-07-16 16:36 25K 
[   ]160716-1510-Untitled.kmz.php2016-07-16 16:36 698  
[IMG]160716-1510-Untitled.kmz.png2016-07-16 16:36 0  
[   ]170617-1119-Untitled.kmz2017-06-17 14:57 47K 
[   ]170617-1119-Untitled.kmz.php2017-06-17 14:57 672  
[IMG]170617-1119-Untitled.kmz.png2017-06-17 14:57 0  

Apache/2.4.29 (Ubuntu) Server at kineticgps.com Port 80